Tracking 19164 objects as of 21-May-2018
HD Live streaming from Space Station
objects crossing your sky now

UNISAT 3

Track UNISAT 3 now!
10-day predictions
UNISAT 3 is classified as:


NORAD ID: 28373
Int'l Code: 2004-025H
Perigee: 699.4 km
Apogee: 795.8 km
Inclination: 98.4 °
Period: 99.6 minutes
Semi major axis: 7118 km
RCS: 0.116 m2 (medium)
Launch date: June 29, 2004
Source: Italy (IT)
Launch site: TYURATAM MISSILE AND SPACE COMPLEX (TTMTR)

Unisat 3 is an Italian, scientific microsatellite (12 kg) designed to test solar cells in the space environment.
aabbcc
Your satellite tracking list
Your tracking list is empty




NASA's NSSDC Master Catalog

Two Line Element Set (TLE):
1 28373U 04025H   18140.88198947 +.00000067 +00000-0 +31411-4 0  9999
2 28373 098.3735 082.5797 0067654 265.5335 093.8125 14.45479492732699
Source of the keplerian elements: AFSPC